Preview of NWS' New Version of Forecast
This preview is not operational and should not be used for support decisions.

Regional Weather Roundup (RWR)

Issued by New Orleans/Baton Rouge (LIX)

                            
527 
ASUS44 KLIX 212305
RWRLIX
NEW ORLEANS REGIONAL WEATHER ROUNDUP
NATIONAL WEATHER SERVICE NEW ORLEANS LA
600 PM CDT THU JUN 21 2018

NOTE: "FAIR" INDICATES FEW OR NO CLOUDS BELOW 12,000 FEET WITH NO
      SIGNIFICANT WEATHER AND/OR OBSTRUCTIONS TO VISIBILITY.
      SKY/WX - SKY CONDITION AND SIGNIFICANT WEATHER.
      TMP - AIR TEMPERATURE.     DP    - DEWPOINT TEMPERATURE.
      RH  - RELATIVE HUMIDITY.   PRES  - PRESSURE.
      HI  - HEAT INDEX.          WCI   - WIND CHILL INDEX.

*  THESE STATIONS ARE NOT NWS OR FAA STATIONS AND ARE NOT UNDER
   NWS QUALITY CONTROL. 

LAZ038-040-048-061>063-065>067-069-220000-
SOUTHEAST LOUISIANA
  
CITY           SKY/WX    TMP DP  RH WIND       PRES   REMARKS
N.O. INTL ARPT PTSUNNY   88  76  67 SW7       29.89F HX  99           
N.O. LAKEFRONT FAIR      88  73  61 W13       29.89F HX  95           
N.O. DOWNTOWN* FAIR      90  72  55 VRB5      29.90F HX  97           
RESERVE*         N/A     87  75  66 W3        29.90F HX  96           
SLIDELL        FAIR      83  75  77 N5        29.89F                  
BATON ROUGE    FAIR      83  74  74 W8        29.89F                  
BOOTHVILLE     FAIR      88  74  63 SW12      29.93S HX  96           
BELLE CHASSE   PTSUNNY   86  76  71 SW5       29.89F HX  96           
BOGALUSA*      FAIR      80  74  82 CALM      29.91S                  
GALLIANO*      FAIR      86  73  64 S12       29.91F                  
NEW ROADS*     FAIR      82  73  74 SW3       29.90S                  
GONZALES*      FAIR      84  74  70 W6        29.89F                  
HAMMOND*       FAIR      82  75  78 NW8       29.90S                  
HOUMA*         NOT AVBL                                               
PORT FOURCHON* PTCLDY    86  73  66 SW8       29.92F                  

$$

MSZ070-080>082-220000-
SOUTHERN MISSISSIPPI
  
CITY           SKY/WX    TMP DP  RH WIND       PRES   REMARKS
MCCOMB         FAIR      83  75  77 S6        29.89F                  
GULFPORT       FAIR      80  72  76 NE5       29.89F                  
BILOXI         FAIR      78  73  86 N5        29.89F                  
PASCAGOULA     FAIR      79  74  84 N5        29.90F                  
STENNIS ARPT*  MOSUNNY   81  73  78 VRB5      29.90F                  

$$

COASTAL OBSERVATIONS
LAKE AND NEARSHORE STATIONS
  
STATION/POSITION TIME  SKY/WX   TEMP    WIND        PRES    WAVE
                                AIR SEA DIR/SP/G            HT/PER
                 (UTC)          (F)     (DEG/KT/KT) (MB)    (FT/S)
WAVELAND YACHT   2248            80 88   20/  3/  4 1012.3
GRAND ISLE       2248            85 86  260/  7/  9 1013.3
SOUTHWEST PASS   2248            84 84  220/  7/ 12 1014.0
NEW CANAL        2248            88 86  270/  4/  7 1012.2
SHELL BEACH      2248            87 89  230/ 13/ 16 1012.5

OFFSHORE STATIONS
  
STATION/POSITION TIME  SKY/WX   TEMP    WIND        PRES    WAVE
                                AIR SEA DIR/SP/G            HT/PER
                 (UTC)          (F)     (DEG/KT/KT) (MB)    (FT/S)
64 S DAUPHIN ISL 2250               87  250/ 10/ 14 1013.5    2/ 7

$$